EW3708 Weather Reports


time (UTC)temp
C
wind
direction
speed
KPH
gust
KPH
rain 1hr
cm
rain 24hr
cm
rain mn
cm
humidity
%
barometer
mb
20260906140057 16 165 0.0 4.8 0.00 0.00 0.00 86 1015.1
20260906134554 16 126 0.0 3.2 0.00 0.00 0.00 87 1015.1
20260906133058 16 109 0.0 1.6 0.00 0.00 0.00 87 1014.9
20260906131556 16 146 1.6 3.2 0.00 0.00 0.00 89 1014.9
20260906130049 15 292 1.6 4.8 0.00 0.00 0.00 89 1014.9
20260906124547 15 215 0.0 1.6 0.00 0.00 0.00 91 1014.8
20260906123043 15 214 0.0 3.2 0.00 0.00 0.00 91 1014.5
20260906121544 15 213 0.0 3.2 0.00 0.00 0.00 92 1014.5
20260906120036 15 213 1.6 3.2 0.00 0.00 0.00 93 1014.3
20260906114536 15 213 0.0 0.0 0.00 0.00 0.00 94 1014.2
20260906113043 14 213 0.0 0.0 0.00 0.00 0.00 94 1014.2
20260906111536 14 213 0.0 1.6 0.00 0.00 0.00 93 1014.0
20260906110030 14 213 0.0 3.2 0.00 0.00 0.00 95 1013.7
20260906104528 13 213 0.0 1.6 0.00 0.00 0.00 94 1013.6
20260906103027 13 213 0.0 1.6 0.00 0.00 0.00 93 1013.3
20260906101526 13 213 0.0 1.6 0.00 0.00 0.00 93 1013.3
20260906100024 13 213 0.0 0.0 0.00 0.00 0.00 93 1013.1
20260906094531 13 213 0.0 1.6 0.00 0.00 0.00 93 1012.9
20260906093020 13 213 0.0 0.0 0.00 0.00 0.00 92 1012.8
20260906091527 13 213 0.0 0.0 0.00 0.00 0.00 92 1012.6
20260906090016 13 213 0.0 1.6 0.00 0.00 0.00 92 1012.6
20260906084523 13 213 0.0 0.0 0.00 0.00 0.00 92 1012.5
20260906083021 13 213 0.0 1.6 0.00 0.00 0.00 92 1012.4
20260906081530 13 213 0.0 0.0 0.00 0.00 0.00 92 1012.4
20260906080011 13 213 0.0 0.0 0.00 0.00 0.00 92 1012.3
20260906074511 13 213 0.0 0.0 0.00 0.00 0.00 92 1012.4
20260906073009 13 214 0.0 0.0 0.00 0.00 0.00 92 1012.3
20260906071508 14 214 0.0 0.0 0.00 0.00 0.00 92 1012.1
20260906070009 14 214 0.0 0.0 0.00 0.00 0.00 92 1012.1
20260906064505 14 214 0.0 1.6 0.00 0.00 0.00 92 1012.2
20260906063005 14 214 0.0 0.0 0.00 0.00 0.00 92 1012.2
20260906061504 14 214 0.0 0.0 0.00 0.00 0.00 91 1012.4
20260906060005 14 214 0.0 0.0 0.00 0.00 0.00 91 1012.2
20260906054501 14 214 0.0 0.0 0.00 0.00 0.00 91 1012.4
20260906053100 14 214 0.0 0.0 0.00 0.00 0.00 91 1012.4
20260906051559 14 214 0.0 1.6 0.00 0.00 0.00 91 1012.4
20260906050121 15 214 0.0 1.6 0.00 0.00 0.00 91 1012.5
20260906044557 15 214 0.0 0.0 0.00 0.00 0.00 91 1012.5
20260906043108 15 214 0.0 0.0 0.00 0.00 0.00 90 1012.5
20260906041555 15 214 0.0 1.6 0.00 0.00 0.00 90 1012.5
20260906040052 15 226 0.0 0.0 0.00 0.00 0.00 89 1012.3
20260906034551 15 226 0.0 0.0 0.00 0.00 0.00 90 1012.4
20260906033050 15 226 0.0 0.0 0.00 0.00 0.00 89 1012.3
20260906031549 15 226 0.0 0.0 0.00 0.00 0.00 89 1012.2
20260906030050 15 226 0.0 0.0 0.00 0.00 0.00 88 1012.2
20260906024545 15 226 0.0 0.0 0.00 0.00 0.00 88 1012.1
20260906023045 15 226 0.0 0.0 0.00 0.00 0.00 88 1012.0
20260906021604 16 226 0.0 0.0 0.00 0.00 0.00 87 1012.2
20260906020043 16 226 0.0 1.6 0.00 0.00 0.00 87 1012.1
20260906014543 16 229 0.0 0.0 0.00 0.00 0.00 86 1012.0
20260906013042 16 229 0.0 1.6 0.00 0.00 0.00 86 1011.9
20260906011540 16 229 0.0 1.6 0.00 0.00 0.00 85 1011.8
20260906010041 16 229 0.0 1.6 0.00 0.00 0.00 84 1011.5
20260906004541 17 229 0.0 0.0 0.00 0.00 0.00 83 1011.4
20260906003036 17 229 0.0 0.0 0.00 0.00 0.00 82 1011.3
20260906001535 17 229 0.0 0.0 0.00 0.00 0.00 81 1011.2
20260906000034 18 229 0.0 0.0 0.00 0.00 0.00 79 1011.0
20260905234534 18 229 0.0 1.6 0.00 0.00 0.00 78 1010.9
20260905233033 18 229 0.0 1.6 0.00 0.00 0.00 76 1010.9
20260905231533 19 229 0.0 3.2 0.00 0.00 0.00 76 1010.7
20260905230032 20 229 0.0 3.2 0.00 0.00 0.00 76 1010.7
20260905224535 20 229 0.0 1.6 0.00 0.00 0.00 73 1010.7
20260905223035 20 229 0.0 3.2 0.00 0.00 0.00 73 1010.6
20260905221531 20 229 1.6 3.2 0.00 0.00 0.00 72 1010.7
20260905220030 21 228 0.0 3.2 0.00 0.00 0.00 70 1010.5
20260905214529 21 252 0.0 4.8 0.00 0.00 0.00 67 1010.5
20260905213029 21 234 1.6 4.8 0.00 0.00 0.00 67 1010.3
20260905211528 21 298 0.0 4.8 0.00 0.00 0.00 65 1010.4
20260905210036 22 308 1.6 6.4 0.00 0.00 0.00 61 1010.1
20260905204528 22 319 1.6 6.4 0.00 0.00 0.00 62 1010.1
20260905203027 22 338 1.6 3.2 0.00 0.00 0.00 62 1010.0
20260905201535 22 302 1.6 8.0 0.00 0.00 0.00 59 1010.1
20260905200038 22 323 1.6 6.4 0.00 0.00 0.00 59 1010.0
20260905194525 22 276 1.6 6.4 0.00 0.00 0.00 58 1009.9
20260905193029 22 297 1.6 6.4 0.00 0.00 0.00 58 1010.0
20260905191525 22 185 1.6 6.4 0.00 0.00 0.00 59 1010.0
20260905190024 22 278 3.2 6.4 0.00 0.00 0.00 57 1010.1
20260905184531 22 169 3.2 6.4 0.00 0.00 0.00 57 1010.2
20260905183027 22 113 0.0 4.8 0.00 0.00 0.00 63 1010.3
20260905181523 22 302 3.2 6.4 0.00 0.00 0.00 61 1010.3
20260905180021 22 62 0.0 4.8 0.00 0.00 0.00 59 1010.5
20260905174530 23 154 1.6 8.0 0.00 0.00 0.00 57 1010.4
20260905173024 22 318 0.0 3.2 0.00 0.00 0.00 60 1010.4
20260905171518 22 294 1.6 6.4 0.00 0.00 0.00 61 1010.5
20260905170016 22 250 3.2 6.4 0.00 0.00 0.00 61 1010.5
20260905164514 22 322 1.6 4.8 0.00 0.00 0.00 67 1010.7
20260905163013 22 293 3.2 8.0 0.00 0.00 0.00 62 1010.9
20260905161511 21 220 1.6 6.4 0.00 0.00 0.00 66 1011.1
20260905160013 21 324 0.0 6.4 0.00 0.00 0.00 72 1011.1
20260905154504 20 236 1.6 6.4 0.00 0.00 0.00 70 1011.0
20260905153003 20 279 1.6 6.4 0.00 0.00 0.00 73 1010.9
20260905151502 20 268 1.6 6.4 0.00 0.00 0.00 72 1010.9
20260905150051 20 305 1.6 6.4 0.00 0.00 0.00 74 1010.9
20260905144552 19 275 1.6 11.3 0.00 0.00 0.00 74 1010.9
20260905143047 19 77 1.6 11.3 0.00 0.00 0.00 77 1010.8
20260905141607 18 308 1.6 6.4 0.00 0.00 0.00 77 1010.8